GoSport Farm Run @ Cowhouse - 10km - Provisional Results

Important Information

Thank you for participating in this event & well done on your result!!!

Please rate the event and feel free to add a few comments if you wish.


  Use the Ctrl+F keys on your keyboard to search for a first or last name

Race NoNameSurnameGenderBatchTimeOverallGenderAge CatAge PosPaceNTS Index
1982AndreVenterMaleA00:26:37.511Open102:39/km9.00
1775HandryJonkerMaleA00:29:53.52214 - 19102:58/km9.75
2097AdelTerblanche FemaleA00:30:43.231Open103:03/km10.49
1842KarelKappMaleA00:31:10.943Open203:06/km11.24
2061RobertBarnardMaleA00:32:42.654Open303:15/km11.99
2007DenekeSnymanFemaleA00:33:17.56214 - 19103:18/km12.73
1966AnkeNothnagelFemaleA00:33:20.073Open203:19/km13.48
1883DerekCellariusMaleA00:34:47.98550 - 59103:27/km14.23
1747Monique Van der westhuizen FemaleA00:35:18.094Open303:30/km14.98
2018MariusBothaMaleA00:36:00.0106Open403:36/km15.72
1881AnniSummerFemaleA00:36:21.111550 - 59103:37/km16.47
1816BenVenterMaleA00:36:38.512750 - 59203:39/km17.22
1997GerrieSnymanMaleA00:37:00.813840 - 49103:42/km17.96
1930MichaelSnymanMaleA00:37:02.514950 - 59303:42/km18.71
1885MarcelleSnymanFemaleA00:37:13.215640 - 49103:42/km19.46
2016RoulofHeferMaleA00:37:40.01610Open503:45/km20.20
1959Johanvan RhynMaleA00:38:53.01711Open603:52/km20.95
1889ChristopherBishopMaleA00:38:57.21812Open703:52/km21.70
1993StanleyMacmillanMaleA00:39:17.0191340 - 49203:54/km22.45
2005ChriszelleNagelFemaleA00:39:32.2207Open403:57/km23.19
1956ChrisO'ConnellMaleA00:39:40.8211450 - 59403:57/km23.94
2001jordanbuhrsFemaleA00:39:58.9228Open503:58/km24.69
1869LouisBenekeMaleA00:40:55.8231550 - 59504:04/km25.43
2015Stephande KockMaleA00:40:58.52416Open804:04/km26.18
2078LindaSolanFemaleA00:41:00.6261040 - 49204:06/km27.67
2078ZinéHollanderFemaleA00:41:00.6261014 - 19204:06/km27.67
1900elainemullerFemaleA00:41:04.0271160 - 69104:06/km28.42
1971ElizeUysFemaleA00:41:10.2281250 - 59204:06/km29.17
1801JeanLouwMaleA00:41:18.1291740 - 49304:06/km29.92
1879JoannaBarnardFemaleA00:41:40.9301340 - 49304:09/km30.66
1857AmyFarrellFemaleA00:41:54.23114Open604:10/km31.41
1779JohnVermeulenMaleA00:42:04.1321860 - 69104:12/km32.16
1757AnitaBlountFemaleA00:42:09.9331540 - 49404:12/km32.90
1922Leonvan ZylMaleA00:42:14.2341940 - 49404:12/km33.65
1873TessaAbrahamsonFemaleA00:42:33.03516Open704:15/km34.40
1732Liezelvan GraanFemaleA00:43:12.83617Open804:18/km35.14
2033RichardBewseyMaleA00:43:23.0372050 - 59604:19/km35.89
1710HelderMoraisMaleA00:43:28.63821Open904:19/km36.64
1701LindaCaloreFemaleA00:43:40.9391850 - 59304:21/km37.39
1907GeoffLupton - SmithMaleA00:44:16.9402260 - 69204:24/km38.13
2062CarinCameronFemaleA00:44:42.9422040 - 49604:27/km39.63
2062CarinCameronFemaleA00:44:42.9422040 - 49604:27/km39.63
1963Jaco KochKochMaleA00:44:45.14323Open1004:27/km40.37
1814AdriPayneFemaleA00:44:47.5442140 - 49704:27/km41.12
1824KimFosterFemaleA00:45:22.9452260 - 69204:31/km41.87
1991JanineBewseyFemaleA00:45:56.0462340 - 49804:34/km42.61
1751MarnusPretoriusMaleA00:46:19.24724Open1104:36/km43.36
1972RegardtSchoemanMaleA00:46:23.64825Open1204:37/km44.11
1793RynhardtBenekeMaleA00:46:24.84926Open1304:37/km44.86
1790NaomiJanse Van RensburgFemaleA00:46:29.1502440 - 49904:37/km45.60
2013ChrisVellaMaleA00:46:45.9512740 - 49504:39/km46.35
1736MarilynVellaFemaleA00:46:48.9522540 - 491004:39/km47.10
2095GregFarrellMaleA00:47:56.7532850 - 59704:46/km47.84
1952SteveVenterMaleA00:49:01.05429Open1404:54/km48.59
1806JuliaBatley FemaleA00:49:05.35526Open904:54/km49.34
2086CariletteVan der WaltFemaleA00:49:08.05627Open1004:54/km50.08
1803SusanNaudeFemaleA00:50:01.5572850 - 59405:00/km50.83
2038Zani HollanderFemaleA00:50:03.7582940 - 491105:00/km51.58
1985MartinUysMaleA00:51:42.4593050 - 59805:09/km52.33
1986HelenaSmithFemaleA00:53:22.16030Open1105:19/km53.07
1872DerickFourieMaleA00:53:40.96131Open1505:21/km53.82
1919MkatekoMasekoFemaleA00:53:47.86231Open1205:21/km54.57
1717RitaKonigFemaleA00:55:28.3633260 - 69305:31/km55.31
1743HendriemaraisMaleA00:55:36.8643260 - 69305:33/km56.06
1726MelanieMoenFemaleA00:55:58.7653340 - 491205:34/km56.81
1999CharlesMaraisMaleA00:57:09.4663360 - 69405:42/km57.55
2047WendyIrelandFemaleA00:57:28.2673440 - 491305:43/km58.30
1702ADCorbettFemaleA00:59:21.7683560 - 69405:55/km59.05
1918MatlakalaMonyaiFemaleA01:00:56.3693640 - 491406:04/km59.80
1967AnneReynoldsFemaleA01:08:07.5703760 - 69506:48/km60.54
1899EricaStrydomFemaleA01:08:08.1713840 - 491506:48/km61.29
2052PatriciaShaw FemaleA01:08:10.2723960 - 69606:48/km62.04
2094LindaSolanFemaleA01:08:12.7734040 - 491606:48/km62.78
1832AgnesKirschFemaleA01:08:15.1744160 - 69706:48/km63.53
1805HeatherSalingerFemaleA01:08:22.6754260 - 69806:49/km64.28
1962SueHoldenFemaleA01:08:43.1764360 - 69906:51/km65.02
1817WilliamTempletonMaleA01:13:07.0773450 - 59907:18/km65.77
1748AdeleSutherlandFemaleA01:13:36.0784440 - 491707:21/km66.52